Goodland, KS

2:19 PM MST on December 14, 2019 (GMT -0700)
Renner-Goodland Municipal

Weather History for KGLD - September, 2019

Change the Weather History Date:

Wednesday, September 18, 2019

  Actual Average Record
Temperature  
Mean Temperature 70 °F 64 °F  
Max Temperature 82 °F 78 °F 99 °F (1895)
Min Temperature 57 °F 49 °F 34 °F (1971)
Degree Days  
Heating Degree Days 0 4  
Month to date heating degree days 2 39  
Since 1 July heating degree days 2 51  
Cooling Degree Days 5 3  
Month to date cooling degree days 155 81  
Year to date cooling degree days 1001 914  
Growing Degree Days 20 (Base 50)    
Moisture  
Dew Point 51 °F    
Average Humidity 60    
Maximum Humidity 87    
Minimum Humidity 33    
Precipitation  
Precipitation 0.00 in 0.04 in 2.01 in (1967)
Month to date precipitation 0.36 0.75  
Year to date precipitation 21.22 16.65  
Snow  
Snow 0.00 in 0.00 in - ()
Month to date snowfall 0.0 0.1  
Since 1 July snowfall 0.0 0.1  
Since 1 September snowfall 0.0 0.1  
Snow Depth 0.00 in    
Sea Level Pressure  
Sea Level Pressure 29.87 in    
Wind  
Wind Speed 11 mph (NE)    
Max Wind Speed 22 mph    
Max Gust Speed 31 mph    
Visibility 10 miles    
Events      
T = Trace of Precipitation, MM = Missing Value Source: NWS Daily Summary

Daily Weather History Graph

Daily Weather History Graph

Search for Another Location

Airport or City:

Astronomy

Sep. 18, 2019 Rise Set
Actual Time 6:30 AM MDT 6:50 PM MDT
Civil Twilight 6:03 AM MDT 7:17 PM MDT
Nautical Twilight 5:32 AM MDT 7:48 PM MDT
Astronomical Twilight 4:59 AM MDT 8:21 PM MDT
Moon 9:27 PM MDT (9/18) 10:34 AM MDT (9/18)
Length of Visible Light 13h 13m
Length of Day
12h 20m
Waning Gibbous, 82% of the Moon is Illuminated
Sep 18
Waning Gibbous
Sep 21
Last Quarter
Sep 28
New
Oct 5
First Quarter
Oct 13
Full

Hourly Weather History & Observations

Time (MDT) Temp. Dew Point Humidity Pressure Visibility Wind Dir Wind Speed Gust Speed Precip Events Conditions
12:53 AM 68.0 °F 57.0 °F 68% 29.73 in 10.0 mi South 12.7 mph - N/A   Clear
1:53 AM 64.9 °F 55.9 °F 73% 29.74 in 10.0 mi South 10.4 mph - N/A   Clear
2:53 AM 60.1 °F 55.0 °F 83% 29.76 in 10.0 mi WSW 3.5 mph - N/A   Clear
3:53 AM 59.0 °F 54.0 °F 83% 29.78 in 10.0 mi NNW 10.4 mph - N/A   Clear
4:53 AM 63.0 °F 51.1 °F 65% 29.78 in 10.0 mi North 18.4 mph 28.8 mph N/A   Clear
5:53 AM 61.0 °F 51.1 °F 70% 29.83 in 10.0 mi North 16.1 mph 25.3 mph N/A   Clear
6:53 AM 59.0 °F 48.9 °F 69% 29.89 in 10.0 mi North 15.0 mph - N/A   Clear
7:53 AM 62.1 °F 46.9 °F 58% 29.92 in 10.0 mi North 16.1 mph 23.0 mph N/A   Clear
8:53 AM 66.0 °F 43.0 °F 43% 29.92 in 10.0 mi North 17.3 mph 28.8 mph N/A   Clear
9:53 AM 70.0 °F 42.1 °F 36% 29.92 in 10.0 mi North 16.1 mph 26.5 mph N/A   Clear
10:53 AM 73.0 °F 43.0 °F 34% 29.93 in 10.0 mi NNE 16.1 mph 25.3 mph N/A   Clear
11:53 AM 75.9 °F 45.0 °F 33% 29.92 in 10.0 mi NE 15.0 mph 25.3 mph N/A   Clear
12:53 PM 78.1 °F 48.0 °F 35% 29.92 in 10.0 mi NNE 16.1 mph 26.5 mph N/A   Clear
1:53 PM 80.1 °F 48.0 °F 32% 29.90 in 10.0 mi ENE 13.8 mph 20.7 mph N/A   Clear
2:53 PM 81.0 °F 48.9 °F 33% 29.90 in 10.0 mi ENE 9.2 mph 19.6 mph N/A   Clear
3:53 PM 81.0 °F 50.0 °F 34% 29.89 in 10.0 mi ENE 11.5 mph 17.3 mph N/A   Clear
4:53 PM 81.0 °F 50.0 °F 34% 29.88 in 10.0 mi ENE 11.5 mph - N/A   Clear
5:53 PM 78.1 °F 50.0 °F 37% 29.88 in 10.0 mi East 11.5 mph - N/A   Clear
6:53 PM 68.0 °F 53.1 °F 59% 29.90 in 10.0 mi East 6.9 mph - N/A   Clear
7:53 PM 64.9 °F 54.0 °F 68% 29.92 in 10.0 mi ENE 4.6 mph - N/A   Clear
8:53 PM 61.0 °F 54.0 °F 78% 29.94 in 10.0 mi Calm Calm - N/A   Clear
9:53 PM 60.1 °F 55.0 °F 83% 29.93 in 10.0 mi Calm Calm - N/A   Clear
10:53 PM 59.0 °F 55.0 °F 87% 29.91 in 10.0 mi East 3.5 mph - N/A   Clear
11:53 PM 59.0 °F 55.0 °F 87% 29.89 in 10.0 mi East 4.6 mph - N/A   Clear